{"data":{"norad_id":66626,"intl_designator":"2025-271K","name":"STARLINK-35902","alt_names":[],"object_type":"PAYLOAD","status":"ACTIVE","operator":null,"country":"US","launch_date":"2025-11-23","launch_site_code":"AFWTR","launch_vehicle":null,"mission":null,"orbit_class":"UNKNOWN","rcs_meters":null,"size_class":null,"mass_kg":null,"dimensions":null,"purposes":["comms"],"wikipedia_slug":null,"has_3d_model":false,"image_url":null,"decayed_at":null,"tle_current":{"epoch":"2026-05-24T23:34:29.144064Z","epoch_age_seconds":69870,"freshness":"FRESH","line1":"1 66626U 25271K   26144.98228176  .00000991  00000+0  45597-4 0  9995","line2":"2 66626  53.1594 145.8308 0001900 100.1751 259.9464 15.30192085 29249","mean_motion":15.30192085,"eccentricity":0.00019,"inclination_deg":53.1594,"raan_deg":145.8308,"arg_perigee_deg":100.1751,"mean_anomaly_deg":259.9464,"bstar":4.5597e-5,"rev_number":2924,"period_min":94.105832471353,"perigee_km":473.93656090107,"apogee_km":476.54084366794,"semimajor_km":6853.3757022845,"source":"CELESTRAK","updated_at":"2026-05-25T13:38:21.295870Z"}}}